Location: Meanaryar
(48.4161°N, 4.7315°W)
Time: 08:54:33
(UTC+00:00)

Cosmos 1092 Rocket - Pass Details

Date: 25 January 2021
Orbit: 954 x 995 km, 83.0° (Epoch: 02 March)

Event Time Altitude Azimuth Distance (km) Brightness Sun altitude
Rises 07:09:40 0° 341° (NNW) 3,645 6.6 -7.9°
Reaches altitude 10° 07:12:37 10° 328° (NNW) 2,696 5.9 -7.4°
Maximum altitude 07:17:22 24° 277° (W) 1,868 4.9 -6.7°
Drops below altitude 10° 07:22:09 10° 226° (SW) 2,696 6.1 -6.0°
Sets 07:25:06 0° 213° (SSW) 3,644 6.9 -5.5°
